Location: Green River State Wildlife Area
(41.6390°N, 89.5080°W)
Time: 19:26:21
(UTC-05:00)

Daily predictions for brighter satellites

Satellite Brightness Start Highest point End
(mag) Time Altitude Azimuth Time Altitude Azimuth Time Altitude Azimuth
Cosmos 1544 Rocket 3.9 19:55:39 10° SSW 20:00:02 73° W 20:04:28 10° N
Cosmos 2278 4.0 19:55:27 10° SSW 20:01:07 77° WNW 20:06:51 10° NNE
Cosmos 468 Rocket 4.4 20:00:05 10° S 20:04:47 38° ESE 20:09:31 10° NE
BREEZE-M DEB (TANK) 4.0 20:03:04 10° SW 20:06:43 66° SE 20:18:56 10° ENE
Cosmos 1934 Rocket 4.2 20:02:07 10° S 20:08:16 83° W 20:14:34 10° N
DELTA 2 R/B (1) 4.2 20:03:38 10° W 20:08:58 48° SSW 20:14:17 10° SE
Meteor 1-29 3.4 20:06:50 10° N 20:10:18 70° WNW 20:13:45 10° SSW
Cosmos 1980 Rocket 3.0 20:05:51 10° SSE 20:10:38 29° ESE 20:15:28 10° NE
Helios 1A 3.7 20:10:02 10° S 20:14:08 57° WSW 20:18:18 10° NNW
RESURS DK-1 3.0 20:10:24 10° N 20:14:18 38° ENE 20:18:10 10° SE
Cosmos 2369 4.3 20:10:50 10° SW 20:16:28 65° WNW 20:22:10 10° NNE
Resurs 01 Rocket 2.5 20:13:01 10° S 20:17:21 54° W 20:21:43 10° NNW
Cosmos 1814 Rocket 4.3 20:13:39 10° S 20:18:41 44° ESE 20:23:42 10° NNE
H-2A R/B 2.9 20:15:07 10° SSE 20:18:55 55° ENE 20:22:48 10° N
FENGYUN 3A 3.6 20:15:44 10° SSE 20:21:02 73° ENE 20:26:24 10° N
Cosmos 1656 3.6 20:15:30 10° SSW 20:21:06 80° ESE 20:26:41 10° NNE
CZ-4B DEB 3.0 20:20:43 10° S 20:23:59 75° WSW 20:27:18 10° NNW
Cosmos 2263 Rocket 4.2 20:31:14 10° NNE 20:33:39 13° NE 20:36:03 10° ENE
Cosmos 858 Rocket 4.5 20:29:42 10° NNW 20:35:01 75° ENE 20:40:17 10° SSE
Iridium 4 Rocket 3.2 20:32:42 10° N 20:37:37 72° E 20:42:05 10° S
Lacrosse 5 1.9 20:32:46 10° NW 20:37:52 85° SW 20:41:56 16° SE
Cosmos 1802 Rocket 4.4 20:33:44 10° SSE 20:39:41 43° E 20:45:41 10° NNE
EO 1 Delta rocket 4.2 20:35:15 10° N 20:40:04 85° W 20:45:48 10° SSW
Cosmos 1500 3.0 20:36:47 10° S 20:40:31 75° E 20:44:18 10° NNE
Cosmos 1825 Rocket 4.1 20:37:21 10° N 20:41:30 38° ENE 20:44:13 19° SE
Cosmos 2227 Rocket 3.7 20:36:26 10° NW 20:41:31 35° WSW 20:46:36 10° S
Cosmos 1975 3.4 20:40:08 10° SSW 20:44:11 61° W 20:48:16 10° N
Cosmos 2016 Rocket 4.5 20:38:56 10° SSE 20:44:29 38° E 20:50:08 10° NNE
CZ-2D R/B 3.7 20:41:11 10° S 20:45:00 63° WSW 20:48:53 10° NNW
Cosmos 2322 Rocket 3.3 20:43:34 18° SE 20:45:33 21° E 20:49:41 10° NE
Cosmos 1340 3.3 20:42:27 10° N 20:45:58 35° ENE 20:47:32 24° ESE
Lacrosse 5 rocket 3.7 20:44:27 10° W 20:46:43 16° WSW 20:48:57 10° SSW
Cosmos 2084 4.4 20:43:58 10° NW 20:47:51 43° WSW 20:51:53 10° SSE
SPOT 5 4.1 20:47:47 19° E 20:49:32 24° ENE 20:53:18 10° NNE
Envisat 3.5 20:49:39 21° SE 20:52:39 41° ENE 20:57:24 10° N
Cosmos 1937 Rocket 3.5 20:48:13 10° NNW 20:53:32 87° ENE 20:58:05 14° SSE
Cosmos 1953 Rocket 4.2 20:49:37 10° N 20:53:49 38° ENE 20:55:42 26° SE
H-2A R/B 3.0 20:55:01 24° E 20:56:02 27° ENE 20:59:33 10° N
Cosmos 2173 Rocket 4.0 20:49:53 10° S 20:56:09 66° E 21:02:25 10° NNE
Cosmos 2297 Rocket 3.6 20:51:06 10° NW 20:56:15 37° WSW 21:01:24 10° S
USA 186 2.6 20:53:52 10° S 20:56:44 44° W 20:59:26 10° NNW
Cosmos 990 Rocket 3.9 20:55:45 10° NNW 21:01:01 76° ENE 21:04:27 22° SSE
CZ-4 DEB 2.6 21:03:21 40° SSE 21:04:21 76° ENE 21:07:30 10° N
ALOS 3.6 21:00:04 10° SSW 21:04:25 39° W 21:08:48 10° NNW
Cosmos 967 Rocket 4.4 20:58:11 10° NNW 21:04:34 76° ENE 21:08:25 25° SE
Cosmos 2360 4.2 20:59:23 10° S 21:04:59 58° ESE 21:10:36 10° NNE
Cosmos 2227 4.2 21:03:33 10° NNW 21:09:18 72° ENE 21:12:25 28° SE
OAO 2 Rocket 4.2 21:06:31 10° WSW 21:11:01 34° S 21:12:34 28° SSE
Meteor 1-21 4.2 21:05:48 10° N 21:11:36 71° E 21:15:23 23° SSE
Cosmos 1758 Rocket 3.7 21:07:52 10° N 21:12:06 51° E 21:13:13 40° SE
ERS-1 Rocket 2.9 21:08:47 22° SSE 21:12:08 81° ENE 21:17:10 10° NNW
Cosmos 2100 Rocket 4.0 21:08:31 10° S 21:14:48 83° W 21:21:03 10° N
YAOGAN 11 4.1 21:11:55 22° S 21:14:50 83° WSW 21:19:18 10° NNW
BREEZE-M DEB (TANK) 2.2 21:14:26 10° NW 21:16:41 56° NNE 21:17:25 44° E
Tiangong 1 2.2 21:19:04 10° W 21:21:38 32° SW 21:21:38 32° SW
Cosmos 1939 Rocket 2.9 21:23:17 38° S 21:24:49 86° WSW 21:29:01 10° NNW
Cosmos 836 Rocket 4.5 21:19:38 10° S 21:24:50 62° ESE 21:30:05 10° NNE
Cosmos 1743 3.3 21:21:15 10° SSW 21:25:06 57° W 21:28:59 10° N
H-2A R/B 3.8 21:25:29 15° ENE 21:25:29 15° ENE 21:28:04 10° NNE
Cosmos 1763 Rocket 3.5 21:20:18 10° SSW 21:25:24 80° WNW 21:30:30 10° NNE
deb Chang Zheng 4 3.6 21:21:47 10° NNE 21:26:10 55° E 21:26:47 50° SE
Tsikada Rocket 4.2 21:21:49 10° N 21:28:07 55° ENE 21:30:23 37° SE
Cosmos 1697 Rocket 4.1 21:24:41 10° SW 21:29:57 40° WNW 21:35:16 10° N
Cosmos 2061 Rocket 4.3 21:25:07 10° SSW 21:31:23 69° W 21:37:37 10° N
Cosmos 1459 Rocket 4.5 21:32:12 10° SSW 21:38:09 58° W 21:44:12 10° N
ARGOS 3.7 21:39:04 39° E 21:39:31 40° ENE 21:44:31 10° N
Cosmos 1606 Rocket 4.2 21:38:26 14° SSW 21:42:05 56° W 21:46:29 10° N
Cosmos 2058 Rocket 3.0 21:40:58 50° S 21:42:08 90° W 21:46:41 10° N
Cosmos 1125 Rocket 3.4 21:38:12 10° NNW 21:43:26 73° ENE 21:44:17 59° SE
SL-16 R/B 2.1 21:41:42 37° S 21:43:49 63° ESE 21:49:26 10° NNE
SPOT 1/Viking Rocket 3.9 21:44:10 46° E 21:44:27 46° ENE 21:49:25 10° N
Cosmos 1725 Rocket 3.9 21:42:59 30° S 21:46:14 79° E 21:52:31 10° N
MetOp-B 4.0 21:46:30 57° SE 21:47:31 74° ENE 21:52:53 10° N
Cosmos 2098 Rocket 3.9 21:43:33 15° S 21:49:13 87° W 21:54:43 10° N
ASTEX 1 3.3 21:45:40 10° N 21:50:42 89° W 21:51:52 54° S
Cosmos 841 Rocket 4.1 21:45:39 10° SW 21:50:47 55° WNW 21:55:55 10° N
Cosmos 1980 Rocket 3.4 21:49:06 10° SW 21:54:26 41° WNW 21:59:50 10° N
Cosmos 2360 Rocket 4.1 21:58:32 16° NE 21:58:32 16° NE 21:59:47 10° NE
Cosmos 540 Rocket 3.6 21:55:48 56° ENE 21:55:48 56° ENE 22:00:09 10° NNE
Cosmos 1842 4.1 21:59:38 10° NNW 22:03:13 45° W 22:03:13 45° W
YAOGAN 6 3.8 22:05:28 42° NNW 22:05:28 42° NNW 22:08:04 10° NNW
Cosmos 1666 3.8 22:04:42 40° W 22:04:50 40° WNW 22:08:26 10° N
Cosmos 2233 Rocket 3.8 22:06:51 66° SE 22:07:27 71° E 22:13:41 10° NNE
Cosmos 372 Rocket 4.0 22:08:54 10° NNW 22:13:41 76° N 22:13:41 76° N
Cosmos 332 Rocket 4.0 22:16:29 67° NNW 22:16:29 67° NNW 22:20:54 10° NNE
Cosmos 2263 Rocket 2.2 22:13:01 10° NNW 22:18:16 71° NE 22:18:16 71° NE
Lacrosse 5 4.2 22:17:45 10° W 22:20:06 13° WSW 22:21:09 13° SW
SPOT 5 3.9 22:27:02 38° WSW 22:27:24 39° W 22:31:51 10° NNW
SL-19 R/B 4.2 22:22:57 10° NNE 22:28:11 74° NW 22:28:11 74° NW
Cosmos 2322 Rocket 2.8 22:25:05 18° SW 22:29:09 54° WNW 22:34:40 10° NNE
H-2A R/B 3.9 22:32:10 24° W 22:32:10 24° W 22:35:25 10° NW
Cosmos 2228 4.5 22:32:39 34° WNW 22:32:39 34° WNW 22:36:19 10° N
CZ-4B R/B 4.4 22:34:54 10° N 22:38:04 42° N 22:38:04 42° N
Terra 3.2 22:42:36 33° N 22:42:36 33° N 22:45:21 10° N
Meteor 2-5 Rocket 4.0 22:39:49 10° NNW 22:45:04 68° NW 22:45:04 68° NW
Meteor 1-24 Rocket 4.3 22:46:40 10° N 22:51:23 54° NNE 22:51:23 54° NNE
Cosmos 1464 Rocket 4.4 22:58:09 56° NNE 22:58:09 56° NNE 23:03:03 10° N
ATLAS CENTAUR R/B 4.2 23:02:48 59° ESE 23:02:48 59° ESE 23:21:43 10° NE
H-2A R/B 3.3 23:06:08 36° NNW 23:06:08 36° NNW 23:09:07 10° NNW
Cosmos 2278 Rocket 4.0 23:08:14 10° N 23:11:26 22° NNE 23:11:26 22° NNE
USA 215 3.5 23:24:24 63° NNW 23:24:24 63° NNW 23:29:55 10° NW
SL-16 R/B 4.4 23:24:06 10° W 23:28:23 22° NW 23:32:42 10° N
Cosmos 1844 Rocket 4.1 23:24:05 10° NNW 23:27:15 34° N 23:27:15 34° N
Cosmos 2360 Rocket 3.6 23:40:15 34° NNW 23:40:15 34° NNW 23:44:07 10° N
